Location: Newark
(33.6333°S, 78.8500°W)
Time: 21:13:14
(UTC+00:00)

LightSail 2 - Visible Passes

Search period start: 23 October 2019 00:00
Search period end: 02 November 2019 00:00
Orbit: 707 x 722 km, 24.0° (Epoch: 22 October)

Date Brightness Start Highest point End Pass type
(mag) Time Alt. Az. Time Alt. Az. Time Alt. Az.
23 Oct 6.3 09:00:53 24° NNW 09:02:13 27° N 09:06:36 10° NE visible
24 Oct 6.9 08:06:50 21° NE 08:06:50 21° NE 08:09:09 10° ENE visible
24 Oct 6.6 09:45:50 10° WNW 09:49:45 21° NNW 09:53:39 10° NE visible
25 Oct 6.4 08:51:50 24° NNW 08:52:16 24° N 08:56:26 10° NE visible
26 Oct 7.3 07:57:54 15° NE 07:57:54 15° NE 07:59:05 10° NE visible
26 Oct 6.9 09:36:54 11° NW 09:39:44 16° NNW 09:42:53 10° NNE visible
27 Oct 6.8 08:43:03 19° N 08:43:03 19° N 08:45:56 10° NNE visible
28 Oct 7.2 09:28:19 10° NW 09:29:38 11° NNW 09:30:56 10° N visible
29 Oct 7.4 08:34:38 11° N 08:34:38 11° N 08:34:50 10° NNE visible
